Location: Joplin, MO
(37.0842°N, 94.5133°W)
Time: 20:40:12
(UTC+02:00)

Courier 1B Rocket - Pass Details

Date: 06 April 2023
Orbit: 920 x 1202 km, 28.2° (Epoch: 05 June)

Event Time Altitude Azimuth Distance (km) Brightness Sun altitude
Rises 01:10:37 0° 252° (WSW) 4,092 9.8 17.7°
Reaches altitude 10° 01:13:38 10° 246° (WSW) 3,121 9.3 17.1°
Maximum altitude 01:20:53 43° 178° (S) 1,583 6.4 15.7°
Drops below altitude 10° 01:27:51 10° 109° (ESE) 3,000 7.1 14.3°
Sets 01:30:42 0° 103° (ESE) 3,919 7.5 13.7°
